| time (UTC) | temp F | wind direction | speed MPH | gust MPH | rain 1hr in | rain 24hr in | rain mn in | humidity % | barometer mb |
| 20260507054545 | 55 | 0 | 0.0 | 0.0 | 0.00 | 0.22 | 0.00 | 95 | 1013.4 |
| 20260507054035 | 55 | 0 | 0.0 | 0.0 | 0.00 | 0.22 | 0.00 | 95 | 1013.2 |
| 20260507053534 | 54 | 0 | 0.0 | 0.0 | 0.00 | 0.22 | 0.00 | 96 | 1013.5 |
| 20260507053045 | 54 | 0 | 0.0 | 1.0 | 0.00 | 0.22 | 0.00 | 96 | 1013.3 |
| 20260507052532 | 53 | 0 | 0.0 | 1.0 | 0.00 | 0.22 | 0.00 | 95 | 1013.5 |
| 20260507052034 | 53 | 0 | 0.0 | 1.0 | 0.00 | 0.22 | 0.00 | 96 | 1013.2 |
| 20260507051545 | 53 | 0 | 0.0 | 3.0 | 0.00 | 0.22 | 0.00 | 96 | 1013.2 |
| 20260507051037 | 52 | 0 | 1.0 | 3.0 | 0.00 | 0.22 | 0.00 | 95 | 1013.2 |
| 20260507050533 | 52 | 107 | 1.0 | 2.0 | 0.00 | 0.22 | 0.00 | 95 | 1013.3 |
| 20260507050047 | 53 | 126 | 0.0 | 1.0 | 0.00 | 0.22 | 0.00 | 95 | 1013.1 |
| 20260507045531 | 53 | 0 | 0.0 | 0.0 | 0.00 | 0.74 | 0.00 | 96 | 1013.1 |
| 20260507045033 | 52 | 0 | 0.0 | 0.0 | 0.00 | 0.74 | 0.00 | 96 | 1013.1 |
| 20260507044541 | 52 | 0 | 0.0 | 0.0 | 0.00 | 0.74 | 0.00 | 96 | 1013.1 |
| 20260507044031 | 52 | 0 | 0.0 | 0.0 | 0.00 | 0.74 | 0.00 | 96 | 1013.2 |
| 20260507043531 | 52 | 0 | 0.0 | 0.0 | 0.00 | 0.74 | 0.00 | 95 | 1013.1 |
| 20260507043048 | 51 | 0 | 0.0 | 0.0 | 0.00 | 0.74 | 0.00 | 95 | 1013.0 |
| 20260507042535 | 52 | 0 | 0.0 | 0.0 | 0.00 | 0.74 | 0.00 | 96 | 1012.9 |
| 20260507042033 | 51 | 0 | 0.0 | 0.0 | 0.00 | 0.74 | 0.00 | 95 | 1013.0 |
| 20260507041547 | 51 | 0 | 0.0 | 0.0 | 0.00 | 0.74 | 0.00 | 95 | 1013.2 |
| 20260507041033 | 51 | 0 | 0.0 | 0.0 | 0.00 | 0.74 | 0.00 | 95 | 1012.9 |
| 20260507040534 | 51 | 0 | 0.0 | 0.0 | 0.00 | 0.74 | 0.00 | 95 | 1012.8 |
| 20260507040050 | 51 | 0 | 0.0 | 0.0 | 0.00 | 0.74 | 0.00 | 95 | 1012.8 |
| 20260507035533 | 51 | 0 | 0.0 | 0.0 | 0.00 | 1.67 | 0.00 | 95 | 1012.7 |
| 20260507035033 | 51 | 0 | 0.0 | 0.0 | 0.00 | 1.67 | 0.00 | 95 | 1012.9 |
| 20260507034607 | 51 | 0 | 0.0 | 0.0 | 0.00 | 1.67 | 0.00 | 95 | 1012.9 |
| 20260507034032 | 51 | 0 | 0.0 | 0.0 | 0.00 | 1.67 | 0.00 | 95 | 1012.9 |
| 20260507033531 | 51 | 0 | 0.0 | 0.0 | 0.00 | 1.67 | 0.00 | 94 | 1013.0 |
| 20260507033103 | 52 | 0 | 0.0 | 0.0 | 0.00 | 1.67 | 0.00 | 95 | 1012.9 |
| 20260507032534 | 52 | 0 | 0.0 | 0.0 | 0.00 | 1.67 | 0.00 | 95 | 1012.8 |
| 20260507032033 | 52 | 0 | 0.0 | 0.0 | 0.00 | 1.67 | 0.00 | 95 | 1012.9 |
| 20260507031547 | 52 | 0 | 0.0 | 0.0 | 0.00 | 1.67 | 0.00 | 95 | 1013.0 |
| 20260507031034 | 52 | 0 | 0.0 | 0.0 | 0.00 | 1.67 | 0.00 | 94 | 1012.9 |
| 20260507030536 | 52 | 0 | 0.0 | 0.0 | 0.00 | 1.67 | 0.00 | 94 | 1012.8 |
| 20260507030045 | 52 | 0 | 0.0 | 0.0 | 0.00 | 1.67 | 0.00 | 94 | 1012.8 |
| 20260507025531 | 52 | 0 | 0.0 | 0.0 | 0.00 | 2.61 | 0.00 | 94 | 1012.8 |
| 20260507025034 | 52 | 0 | 0.0 | 0.0 | 0.00 | 2.61 | 0.00 | 94 | 1012.9 |
| 20260507024553 | 52 | 0 | 0.0 | 0.0 | 0.00 | 2.61 | 0.00 | 94 | 1012.9 |
| 20260507024034 | 53 | 0 | 0.0 | 0.0 | 0.00 | 2.61 | 0.00 | 94 | 1012.9 |
| 20260507023538 | 53 | 0 | 0.0 | 0.0 | 0.00 | 2.61 | 0.00 | 94 | 1012.8 |
| 20260507023044 | 53 | 0 | 0.0 | 0.0 | 0.00 | 2.61 | 0.00 | 94 | 1012.9 |
| 20260507022531 | 53 | 0 | 0.0 | 0.0 | 0.00 | 2.61 | 0.00 | 93 | 1012.7 |
| 20260507022035 | 54 | 0 | 0.0 | 0.0 | 0.00 | 2.61 | 0.00 | 93 | 1012.8 |
| 20260507021547 | 54 | 0 | 0.0 | 0.0 | 0.00 | 2.61 | 0.00 | 94 | 1012.8 |
| 20260507021039 | 54 | 0 | 0.0 | 0.0 | 0.00 | 2.61 | 0.00 | 94 | 1012.8 |
| 20260507020534 | 54 | 0 | 0.0 | 0.0 | 0.00 | 2.61 | 0.00 | 94 | 1012.8 |
| 20260507020047 | 54 | 0 | 0.0 | 1.0 | 0.00 | 2.61 | 0.00 | 94 | 1012.8 |
| 20260507015533 | 54 | 0 | 0.0 | 1.0 | 0.00 | 2.62 | 0.00 | 94 | 1012.9 |
| 20260507015037 | 54 | 0 | 0.0 | 0.0 | 0.00 | 2.62 | 0.00 | 94 | 1012.9 |
| 20260507014542 | 54 | 0 | 0.0 | 0.0 | 0.00 | 2.62 | 0.00 | 94 | 1012.8 |
| 20260507014031 | 54 | 0 | 0.0 | 1.0 | 0.00 | 2.62 | 0.00 | 94 | 1012.7 |
| 20260507013533 | 54 | 0 | 0.0 | 1.0 | 0.00 | 2.62 | 0.00 | 94 | 1012.8 |
| 20260507013041 | 54 | 75 | 0.0 | 1.0 | 0.00 | 2.62 | 0.00 | 94 | 1012.8 |
| 20260507012534 | 54 | 0 | 0.0 | 2.0 | 0.00 | 2.62 | 0.00 | 94 | 1012.8 |
| 20260507012031 | 54 | 0 | 0.0 | 2.0 | 0.00 | 2.62 | 0.00 | 94 | 1012.9 |
| 20260507011546 | 54 | 0 | 0.0 | 0.0 | 0.00 | 2.62 | 0.00 | 94 | 1012.7 |
| 20260507011032 | 54 | 0 | 0.0 | 0.0 | 0.00 | 2.62 | 0.00 | 93 | 1012.5 |
| 20260507010533 | 54 | 0 | 0.0 | 0.0 | 0.00 | 2.62 | 0.00 | 93 | 1012.7 |
| 20260507010052 | 54 | 0 | 0.0 | 0.0 | 0.00 | 2.62 | 0.00 | 93 | 1012.9 |
| 20260507005533 | 54 | 0 | 0.0 | 0.0 | 0.00 | 2.84 | 0.00 | 93 | 1012.9 |
| 20260507005032 | 54 | 0 | 0.0 | 0.0 | 0.00 | 2.84 | 0.00 | 93 | 1012.8 |
| 20260507004542 | 54 | 0 | 0.0 | 0.0 | 0.00 | 2.84 | 0.00 | 93 | 1012.8 |
| 20260507004031 | 54 | 0 | 0.0 | 0.0 | 0.00 | 2.84 | 0.00 | 93 | 1012.8 |
| 20260507003533 | 55 | 0 | 0.0 | 0.0 | 0.00 | 2.84 | 0.00 | 93 | 1012.8 |
| 20260507003046 | 55 | 0 | 0.0 | 0.0 | 0.00 | 2.84 | 0.00 | 93 | 1012.8 |
| 20260507002531 | 55 | 0 | 0.0 | 0.0 | 0.00 | 2.84 | 0.00 | 92 | 1012.9 |
| 20260507002033 | 55 | 0 | 0.0 | 0.0 | 0.00 | 2.84 | 0.00 | 92 | 1012.8 |
| 20260507001606 | 55 | 0 | 0.0 | 1.0 | 0.00 | 2.84 | 0.00 | 92 | 1012.9 |
| 20260507001031 | 55 | 0 | 0.0 | 3.0 | 0.00 | 2.84 | 0.00 | 92 | 1012.7 |
| 20260507000531 | 55 | 94 | 0.0 | 3.0 | 0.00 | 2.84 | 0.00 | 92 | 1012.8 |
| 20260507000047 | 55 | 120 | 1.0 | 3.0 | 0.00 | 2.84 | 0.00 | 92 | 1012.9 |
| 20260506235533 | 55 | 104 | 1.0 | 4.0 | 0.00 | 3.25 | 0.00 | 92 | 1012.9 |
| 20260506235036 | 56 | 0 | 0.0 | 4.0 | 0.00 | 3.25 | 0.00 | 92 | 1012.8 |
| 20260506234555 | 56 | 146 | 1.0 | 5.0 | 0.00 | 3.25 | 0.00 | 92 | 1012.9 |
| 20260506234033 | 56 | 128 | 1.0 | 6.0 | 0.00 | 3.25 | 0.00 | 92 | 1012.8 |
| 20260506233533 | 56 | 129 | 2.0 | 6.0 | 0.00 | 3.25 | 0.00 | 92 | 1012.9 |
| 20260506233045 | 56 | 165 | 2.0 | 6.0 | 0.00 | 3.25 | 0.00 | 92 | 1012.8 |
| 20260506232533 | 56 | 149 | 3.0 | 6.0 | 0.00 | 3.25 | 0.00 | 92 | 1012.9 |
| 20260506232034 | 56 | 107 | 3.0 | 6.0 | 0.00 | 3.25 | 0.00 | 92 | 1012.9 |
| 20260506231544 | 56 | 149 | 2.0 | 6.0 | 0.00 | 3.25 | 0.00 | 92 | 1012.8 |
| 20260506231032 | 56 | 115 | 1.0 | 4.0 | 0.00 | 3.25 | 0.00 | 92 | 1012.9 |
| 20260506230531 | 56 | 113 | 2.0 | 4.0 | 0.00 | 3.25 | 0.00 | 92 | 1012.8 |
| 20260506230043 | 56 | 115 | 2.0 | 4.0 | 0.00 | 3.25 | 0.00 | 92 | 1012.7 |
| 20260506225531 | 56 | 120 | 1.0 | 3.0 | 0.00 | 3.61 | 0.00 | 92 | 1012.7 |
| 20260506225033 | 56 | 121 | 1.0 | 3.0 | 0.00 | 3.61 | 0.00 | 92 | 1012.9 |
| 20260506224603 | 56 | 106 | 1.0 | 3.0 | 0.00 | 3.61 | 0.00 | 92 | 1012.8 |
| 20260506224030 | 57 | 131 | 0.0 | 2.0 | 0.00 | 3.61 | 0.00 | 92 | 1012.9 |
| 20260506223530 | 57 | 110 | 0.0 | 2.0 | 0.00 | 3.61 | 0.00 | 92 | 1012.8 |
| 20260506223046 | 57 | 0 | 0.0 | 3.0 | 0.00 | 3.61 | 0.00 | 92 | 1013.0 |
| 20260506222533 | 57 | 0 | 1.0 | 5.0 | 0.00 | 3.61 | 0.00 | 91 | 1012.9 |
| 20260506222034 | 57 | 0 | 2.0 | 5.0 | 0.00 | 3.61 | 0.00 | 91 | 1013.0 |
| 20260506221543 | 57 | 123 | 2.0 | 5.0 | 0.00 | 3.61 | 0.00 | 92 | 1013.0 |
| 20260506221032 | 57 | 101 | 1.0 | 5.0 | 0.00 | 3.61 | 0.00 | 92 | 1012.9 |
| 20260506220531 | 58 | 95 | 1.0 | 5.0 | 0.00 | 3.61 | 0.00 | 92 | 1012.8 |
| 20260506215532 | 58 | 0 | 0.0 | 4.0 | 0.00 | 3.61 | 3.61 | 92 | 1012.9 |
| 20260506215031 | 58 | 0 | 1.0 | 4.0 | 0.00 | 3.61 | 3.61 | 92 | 1012.7 |
| 20260506214549 | 58 | 107 | 0.0 | 1.0 | 0.00 | 3.61 | 3.61 | 92 | 1012.6 |
| 20260506214033 | 59 | 0 | 0.0 | 0.0 | 0.00 | 3.61 | 3.61 | 92 | 1012.7 |
| 20260506213532 | 59 | 0 | 0.0 | 0.0 | 0.00 | 3.61 | 3.61 | 92 | 1012.6 |
| 20260506213047 | 59 | 0 | 0.0 | 0.0 | 0.00 | 3.61 | 3.61 | 92 | 1012.8 |
| 20260506212534 | 59 | 0 | 0.0 | 0.0 | 0.00 | 3.61 | 3.61 | 92 | 1012.8 |
| 20260506212033 | 59 | 0 | 0.0 | 0.0 | 0.00 | 3.61 | 3.61 | 92 | 1012.8 |
| 20260506211551 | 59 | 0 | 0.0 | 0.0 | 0.00 | 3.61 | 3.61 | 91 | 1012.7 |
| 20260506211032 | 59 | 0 | 0.0 | 0.0 | 0.00 | 3.61 | 3.61 | 91 | 1012.7 |
| 20260506210533 | 59 | 0 | 0.0 | 0.0 | 0.00 | 3.61 | 3.61 | 91 | 1012.6 |
| 20260506210047 | 59 | 0 | 0.0 | 0.0 | 0.00 | 3.61 | 3.61 | 91 | 1012.8 |
| 20260506205533 | 59 | 0 | 0.0 | 2.0 | 0.00 | 3.61 | 3.61 | 91 | 1012.7 |
| 20260506205033 | 59 | 0 | 0.0 | 2.0 | 0.00 | 3.61 | 3.61 | 91 | 1012.5 |
| 20260506204544 | 59 | 94 | 0.0 | 3.0 | 0.00 | 3.61 | 3.61 | 90 | 1012.5 |
| 20260506204036 | 60 | 85 | 1.0 | 3.0 | 0.00 | 3.61 | 3.61 | 90 | 1012.6 |
| 20260506203533 | 60 | 79 | 1.0 | 2.0 | 0.00 | 3.61 | 3.61 | 89 | 1012.3 |
| 20260506203056 | 61 | 85 | 0.0 | 2.0 | 0.00 | 3.61 | 3.61 | 87 | 1012.3 |
| 20260506202533 | 61 | 0 | 0.0 | 2.0 | 0.00 | 3.61 | 3.61 | 86 | 1012.2 |
| 20260506202033 | 61 | 297 | 0.0 | 1.0 | 0.00 | 3.61 | 3.61 | 86 | 1012.2 |
| 20260506201546 | 61 | 0 | 0.0 | 1.0 | 0.00 | 3.61 | 3.61 | 87 | 1012.3 |
| 20260506201033 | 61 | 258 | 0.0 | 1.0 | 0.00 | 3.61 | 3.61 | 87 | 1012.3 |
| 20260506200534 | 61 | 0 | 0.0 | 1.0 | 0.00 | 3.61 | 3.61 | 87 | 1012.3 |
| 20260506200043 | 61 | 0 | 0.0 | 2.0 | 0.00 | 3.61 | 3.61 | 87 | 1012.1 |
| 20260506195532 | 61 | 0 | 0.0 | 2.0 | 0.00 | 3.61 | 3.61 | 87 | 1012.1 |
| 20260506195031 | 62 | 259 | 1.0 | 2.0 | 0.00 | 3.61 | 3.61 | 87 | 1012.0 |
| 20260506194551 | 62 | 272 | 0.0 | 2.0 | 0.00 | 3.61 | 3.61 | 87 | 1011.8 |
| 20260506194033 | 62 | 259 | 0.0 | 2.0 | 0.00 | 3.61 | 3.61 | 87 | 1011.8 |
| 20260506193531 | 62 | 267 | 1.0 | 2.0 | 0.00 | 3.61 | 3.61 | 87 | 1011.7 |
| 20260506193049 | 62 | 266 | 1.0 | 2.0 | 0.00 | 3.61 | 3.61 | 87 | 1011.7 |
| 20260506192531 | 62 | 0 | 1.0 | 2.0 | 0.00 | 3.61 | 3.61 | 87 | 1011.6 |
| 20260506192034 | 62 | 271 | 0.0 | 1.0 | 0.00 | 3.61 | 3.61 | 86 | 1011.5 |
| 20260506191551 | 62 | 247 | 0.0 | 1.0 | 0.00 | 3.61 | 3.61 | 85 | 1011.5 |
| 20260506191033 | 62 | 226 | 0.0 | 1.0 | 0.00 | 3.61 | 3.61 | 85 | 1011.5 |
| 20260506190533 | 62 | 0 | 0.0 | 1.0 | 0.00 | 3.61 | 3.61 | 85 | 1011.3 |
| 20260506190047 | 62 | 0 | 0.0 | 2.0 | 0.00 | 3.61 | 3.61 | 85 | 1011.2 |
| 20260506185532 | 62 | 218 | 1.0 | 2.0 | 0.00 | 3.74 | 3.61 | 84 | 1011.2 |
| 20260506185034 | 62 | 209 | 1.0 | 2.0 | 0.00 | 3.74 | 3.61 | 84 | 1011.1 |
| 20260506184542 | 62 | 0 | 0.0 | 1.0 | 0.00 | 3.74 | 3.61 | 83 | 1011.0 |
| 20260506184033 | 62 | 0 | 0.0 | 1.0 | 0.00 | 3.74 | 3.61 | 83 | 1011.0 |
| 20260506183534 | 62 | 255 | 0.0 | 1.0 | 0.00 | 3.74 | 3.61 | 83 | 1010.8 |
| 20260506183046 | 63 | 0 | 0.0 | 1.0 | 0.00 | 3.74 | 3.61 | 82 | 1010.8 |
| 20260506182532 | 63 | 0 | 0.0 | 1.0 | 0.00 | 3.74 | 3.61 | 82 | 1010.8 |
| 20260506182032 | 63 | 255 | 0.0 | 4.0 | 0.00 | 3.74 | 3.61 | 81 | 1010.8 |
| 20260506181559 | 63 | 0 | 0.0 | 4.0 | 0.00 | 3.74 | 3.61 | 81 | 1010.8 |
| 20260506181032 | 63 | 306 | 2.0 | 4.0 | 0.00 | 3.74 | 3.61 | 80 | 1010.9 |
| 20260506180534 | 63 | 0 | 0.0 | 7.0 | 0.00 | 3.74 | 3.61 | 81 | 1010.7 |
| 20260506180050 | 63 | 262 | 3.0 | 7.0 | 0.00 | 3.74 | 3.61 | 80 | 1010.7 |
| 20260506175530 | 63 | 304 | 4.0 | 6.0 | 0.00 | 3.74 | 3.61 | 80 | 1010.7 |
| 20260506175032 | 64 | 309 | 4.0 | 8.0 | 0.00 | 3.74 | 3.61 | 80 | 1010.5 |
| 20260506174544 | 64 | 306 | 4.0 | 8.0 | 0.00 | 3.74 | 3.61 | 80 | 1010.6 |
| 20260506174035 | 64 | 314 | 5.0 | 7.0 | 0.00 | 3.74 | 3.61 | 80 | 1010.6 |
| 20260506173533 | 64 | 333 | 4.0 | 7.0 | 0.00 | 3.74 | 3.61 | 78 | 1010.6 |
| 20260506173120 | 65 | 301 | 4.0 | 7.0 | 0.00 | 3.74 | 3.61 | 79 | 1010.6 |
| 20260506172533 | 65 | 266 | 3.0 | 8.0 | 0.00 | 3.74 | 3.61 | 80 | 1010.5 |
| 20260506172031 | 65 | 317 | 4.0 | 8.0 | 0.00 | 3.74 | 3.61 | 80 | 1010.3 |
| 20260506171555 | 65 | 309 | 4.0 | 8.0 | 0.00 | 3.74 | 3.61 | 79 | 1010.3 |
| 20260506171032 | 65 | 318 | 2.0 | 5.0 | 0.00 | 3.74 | 3.61 | 79 | 1010.3 |
| 20260506170534 | 65 | 0 | 2.0 | 5.0 | 0.00 | 3.74 | 3.61 | 80 | 1010.4 |
| 20260506170045 | 65 | 316 | 3.0 | 8.0 | 0.00 | 3.74 | 3.61 | 81 | 1010.5 |
| 20260506165532 | 64 | 313 | 3.0 | 8.0 | 0.00 | 3.74 | 3.61 | 80 | 1010.5 |
| 20260506165033 | 64 | 283 | 4.0 | 8.0 | 0.00 | 3.74 | 3.61 | 82 | 1010.6 |
| 20260506164546 | 64 | 257 | 4.0 | 8.0 | 0.00 | 3.74 | 3.61 | 81 | 1010.6 |
| 20260506164032 | 64 | 304 | 4.0 | 7.0 | 0.00 | 3.74 | 3.61 | 80 | 1010.6 |
| 20260506163535 | 64 | 273 | 3.0 | 7.0 | 0.00 | 3.74 | 3.61 | 82 | 1010.7 |
| 20260506163051 | 64 | 295 | 3.0 | 7.0 | 0.00 | 3.74 | 3.61 | 82 | 1010.7 |
| 20260506162534 | 64 | 304 | 4.0 | 7.0 | 0.00 | 3.74 | 3.61 | 82 | 1010.6 |
| 20260506162033 | 64 | 281 | 4.0 | 7.0 | 0.00 | 3.74 | 3.61 | 81 | 1010.5 |
| 20260506161549 | 64 | 281 | 4.0 | 9.0 | 0.00 | 3.74 | 3.61 | 80 | 1010.6 |
| 20260506161032 | 64 | 266 | 5.0 | 11.0 | 0.00 | 3.74 | 3.61 | 80 | 1010.4 |
| 20260506160533 | 64 | 282 | 6.0 | 11.0 | 0.00 | 3.74 | 3.61 | 79 | 1010.6 |
| 20260506160059 | 64 | 274 | 6.0 | 11.0 | 0.00 | 3.74 | 3.61 | 79 | 1010.5 |
| 20260506155534 | 64 | 220 | 5.0 | 8.0 | 0.00 | 3.74 | 3.61 | 81 | 1010.6 |
| 20260506155036 | 65 | 245 | 5.0 | 8.0 | 0.00 | 3.74 | 3.61 | 81 | 1010.6 |
| 20260506154548 | 65 | 273 | 5.0 | 8.0 | 0.00 | 3.74 | 3.61 | 79 | 1010.6 |
| 20260506154034 | 65 | 288 | 3.0 | 11.0 | 0.00 | 3.74 | 3.61 | 79 | 1010.7 |
| 20260506153534 | 65 | 281 | 4.0 | 11.0 | 0.00 | 3.74 | 3.61 | 79 | 1010.8 |
| 20260506153050 | 65 | 277 | 6.0 | 11.0 | 0.00 | 3.74 | 3.61 | 77 | 1010.7 |
| 20260506152534 | 65 | 274 | 6.0 | 10.0 | 0.00 | 3.74 | 3.61 | 77 | 1010.7 |
| 20260506152034 | 65 | 308 | 5.0 | 9.0 | 0.00 | 3.74 | 3.61 | 78 | 1010.5 |
| 20260506151555 | 65 | 310 | 5.0 | 13.0 | 0.00 | 3.74 | 3.61 | 77 | 1010.7 |
| 20260506151034 | 65 | 305 | 7.0 | 13.0 | 0.00 | 3.74 | 3.61 | 75 | 1010.6 |
| 20260506150534 | 65 | 286 | 5.0 | 12.0 | 0.00 | 3.74 | 3.61 | 74 | 1010.7 |
| 20260506150049 | 66 | 298 | 7.0 | 12.0 | 0.00 | 3.74 | 3.61 | 72 | 1010.6 |
| 20260506145532 | 66 | 303 | 8.0 | 13.0 | 0.00 | 3.74 | 3.61 | 68 | 1010.6 |
| 20260506145035 | 66 | 273 | 8.0 | 13.0 | 0.00 | 3.74 | 3.61 | 71 | 1010.4 |
| 20260506144550 | 66 | 309 | 6.0 | 13.0 | 0.00 | 3.74 | 3.61 | 74 | 1010.5 |
| 20260506144034 | 66 | 297 | 7.0 | 13.0 | 0.06 | 3.74 | 3.61 | 74 | 1010.3 |
| 20260506143534 | 66 | 304 | 8.0 | 13.0 | 0.13 | 3.74 | 3.61 | 71 | 1010.3 |
| 20260506143050 | 66 | 249 | 7.0 | 13.0 | 0.13 | 3.74 | 3.61 | 76 | 1010.3 |
| 20260506142535 | 66 | 253 | 9.0 | 13.0 | 0.13 | 3.74 | 3.61 | 77 | 1010.3 |
| 20260506142038 | 66 | 273 | 9.0 | 13.0 | 0.13 | 3.74 | 3.61 | 78 | 1010.2 |
| 20260506141545 | 66 | 274 | 6.0 | 14.0 | 0.13 | 3.74 | 3.61 | 81 | 1010.2 |
| 20260506141035 | 66 | 221 | 6.0 | 14.0 | 0.13 | 3.74 | 3.61 | 85 | 1010.3 |
| 20260506140535 | 65 | 221 | 7.0 | 14.0 | 0.13 | 3.74 | 3.61 | 83 | 1010.3 |
| 20260506140053 | 65 | 304 | 6.0 | 14.0 | 0.13 | 3.74 | 3.61 | 85 | 1010.3 |
| 20260506135534 | 64 | 265 | 6.0 | 16.0 | 0.13 | 3.74 | 3.61 | 87 | 1010.4 |
| 20260506135034 | 64 | 262 | 9.0 | 16.0 | 0.13 | 3.74 | 3.61 | 87 | 1010.4 |
| 20260506134549 | 64 | 276 | 9.0 | 16.0 | 0.12 | 3.73 | 3.60 | 84 | 1010.4 |
| 20260506134034 | 66 | 282 | 10.0 | 17.0 | 0.04 | 3.65 | 3.52 | 85 | 1010.6 |
| 20260506133534 | 66 | 267 | 8.0 | 17.0 | 0.00 | 3.60 | 3.48 | 83 | 1010.5 |
| 20260506133048 | 67 | 311 | 6.0 | 11.0 | 0.00 | 3.60 | 3.48 | 83 | 1010.4 |
| 20260506132534 | 67 | 293 | 6.0 | 13.0 | 0.00 | 3.60 | 3.48 | 83 | 1010.5 |
| 20260506132037 | 67 | 320 | 7.0 | 14.0 | 0.00 | 3.60 | 3.48 | 81 | 1010.5 |
| 20260506131558 | 67 | 266 | 6.0 | 14.0 | 0.00 | 3.60 | 3.48 | 80 | 1010.2 |
| 20260506131034 | 67 | 251 | 8.0 | 14.0 | 0.00 | 3.60 | 3.48 | 80 | 1010.5 |
| 20260506130534 | 67 | 293 | 7.0 | 16.0 | 0.00 | 3.60 | 3.48 | 82 | 1010.5 |
| 20260506130053 | 67 | 260 | 7.0 | 18.0 | 0.00 | 3.60 | 3.48 | 81 | 1010.5 |
| 20260506125533 | 67 | 263 | 11.0 | 18.0 | 0.00 | 3.62 | 3.48 | 80 | 1010.6 |
| 20260506125031 | 68 | 262 | 10.0 | 20.0 | 0.00 | 3.62 | 3.48 | 80 | 1010.6 |
| 20260506124546 | 68 | 257 | 13.0 | 20.0 | 0.00 | 3.62 | 3.48 | 78 | 1010.6 |
| 20260506124035 | 68 | 266 | 9.0 | 17.0 | 0.00 | 3.62 | 3.48 | 78 | 1010.4 |
| 20260506123536 | 67 | 264 | 9.0 | 20.0 | 0.00 | 3.62 | 3.48 | 80 | 1010.5 |
| 20260506123047 | 67 | 262 | 10.0 | 20.0 | 0.00 | 3.62 | 3.48 | 78 | 1010.6 |
| 20260506122535 | 67 | 245 | 10.0 | 16.0 | 0.00 | 3.62 | 3.48 | 82 | 1010.4 |
| 20260506122032 | 66 | 271 | 6.0 | 10.0 | 0.00 | 3.62 | 3.48 | 86 | 1010.4 |
| 20260506121541 | 66 | 214 | 5.0 | 12.0 | 0.00 | 3.62 | 3.48 | 85 | 1010.6 |
| 20260506121031 | 65 | 211 | 7.0 | 13.0 | 0.00 | 3.62 | 3.48 | 84 | 1010.6 |
| 20260506120536 | 65 | 143 | 7.0 | 15.0 | 0.00 | 3.62 | 3.48 | 84 | 1010.5 |
| 20260506120056 | 65 | 235 | 10.0 | 16.0 | 0.00 | 3.62 | 3.48 | 86 | 1010.5 |
| 20260506115534 | 65 | 245 | 10.0 | 16.0 | 0.00 | 3.69 | 3.48 | 87 | 1010.4 |
| 20260506115033 | 65 | 250 | 10.0 | 15.0 | 0.00 | 3.69 | 3.48 | 87 | 1010.4 |
| 20260506114546 | 66 | 243 | 10.0 | 15.0 | 0.00 | 3.69 | 3.48 | 87 | 1010.3 |
| 20260506114032 | 66 | 236 | 8.0 | 18.0 | 0.00 | 3.69 | 3.48 | 88 | 1010.3 |
| 20260506113534 | 66 | 263 | 9.0 | 18.0 | 0.00 | 3.69 | 3.48 | 88 | 1010.2 |
| 20260506113044 | 65 | 257 | 8.0 | 18.0 | 0.00 | 3.69 | 3.48 | 87 | 1010.3 |
| 20260506112535 | 66 | 252 | 9.0 | 18.0 | 0.00 | 3.69 | 3.48 | 87 | 1010.3 |
| 20260506112035 | 67 | 240 | 10.0 | 18.0 | 0.00 | 3.68 | 3.47 | 84 | 1010.3 |
| 20260506111542 | 67 | 238 | 9.0 | 22.0 | 0.00 | 3.68 | 3.47 | 82 | 1010.4 |
| 20260506111035 | 67 | 258 | 11.0 | 22.0 | 0.00 | 3.68 | 3.47 | 82 | 1010.3 |
| 20260506110532 | 67 | 158 | 10.0 | 20.0 | 0.00 | 3.68 | 3.47 | 81 | 1010.2 |
| 20260506110055 | 67 | 181 | 12.0 | 20.0 | 0.00 | 3.68 | 3.47 | 80 | 1010.4 |
| 20260506105531 | 67 | 210 | 11.0 | 20.0 | 0.00 | 3.70 | 3.47 | 82 | 1010.3 |
| 20260506105033 | 67 | 226 | 13.0 | 19.0 | 0.00 | 3.70 | 3.47 | 82 | 1010.1 |
| 20260506104550 | 67 | 254 | 9.0 | 19.0 | 0.00 | 3.70 | 3.47 | 83 | 1010.3 |
| 20260506104032 | 67 | 241 | 9.0 | 20.0 | 0.00 | 3.70 | 3.47 | 81 | 1010.5 |
| 20260506103532 | 68 | 227 | 11.0 | 21.0 | 0.00 | 3.70 | 3.47 | 80 | 1010.3 |
| 20260506103047 | 68 | 145 | 10.0 | 21.0 | 0.00 | 3.70 | 3.47 | 79 | 1010.2 |
| 20260506102532 | 69 | 216 | 9.0 | 20.0 | 0.00 | 3.70 | 3.47 | 79 | 1010.4 |
| 20260506102035 | 68 | 197 | 11.0 | 20.0 | 0.00 | 3.70 | 3.47 | 80 | 1010.2 |
| 20260506101544 | 68 | 169 | 12.0 | 20.0 | 0.00 | 3.70 | 3.47 | 79 | 1010.4 |
| 20260506101035 | 68 | 164 | 10.0 | 20.0 | 0.00 | 3.70 | 3.47 | 79 | 1010.2 |
| 20260506100534 | 68 | 152 | 11.0 | 19.0 | 0.00 | 3.70 | 3.47 | 79 | 1010.3 |
| 20260506100043 | 68 | 146 | 11.0 | 22.0 | 0.00 | 3.70 | 3.47 | 79 | 1010.2 |
| 20260506095534 | 68 | 194 | 10.0 | 22.0 | 0.00 | 4.08 | 3.47 | 81 | 1010.2 |
| 20260506095031 | 68 | 243 | 11.0 | 22.0 | 0.00 | 4.08 | 3.47 | 80 | 1010.2 |
| 20260506094556 | 67 | 188 | 12.0 | 22.0 | 0.00 | 4.08 | 3.47 | 81 | 1010.1 |
| 20260506094033 | 67 | 169 | 8.0 | 20.0 | 0.00 | 4.08 | 3.47 | 81 | 1010.0 |
| 20260506093531 | 67 | 238 | 12.0 | 20.0 | 0.00 | 4.08 | 3.47 | 82 | 1010.1 |
| 20260506093047 | 67 | 160 | 10.0 | 17.0 | 0.00 | 4.08 | 3.47 | 83 | 1010.0 |
| 20260506092531 | 66 | 148 | 11.0 | 16.0 | 0.00 | 4.08 | 3.47 | 83 | 1010.0 |
| 20260506092032 | 66 | 173 | 10.0 | 14.0 | 0.00 | 4.08 | 3.47 | 84 | 1010.0 |
| 20260506091549 | 66 | 207 | 7.0 | 15.0 | 0.00 | 4.08 | 3.47 | 84 | 1010.0 |
| 20260506091033 | 66 | 157 | 9.0 | 15.0 | 0.00 | 4.08 | 3.47 | 84 | 1010.0 |
| 20260506090534 | 65 | 174 | 8.0 | 15.0 | 0.00 | 4.08 | 3.47 | 85 | 1010.1 |
| 20260506090048 | 65 | 129 | 8.0 | 18.0 | 0.00 | 4.08 | 3.47 | 85 | 1010.1 |
| 20260506085534 | 66 | 175 | 8.0 | 18.0 | 0.00 | 4.36 | 3.47 | 86 | 1010.2 |
| 20260506085034 | 65 | 212 | 9.0 | 18.0 | 0.00 | 4.36 | 3.47 | 86 | 1010.2 |
| 20260506084547 | 65 | 212 | 8.0 | 18.0 | 0.00 | 4.36 | 3.47 | 87 | 1010.1 |
| 20260506084034 | 64 | 169 | 6.0 | 12.0 | 0.00 | 4.36 | 3.47 | 90 | 1009.9 |
| 20260506083536 | 64 | 156 | 6.0 | 11.0 | 0.00 | 4.36 | 3.47 | 92 | 1010.1 |
| 20260506083047 | 63 | 173 | 5.0 | 11.0 | 0.00 | 4.36 | 3.47 | 95 | 1010.1 |
| 20260506082535 | 63 | 158 | 6.0 | 11.0 | 0.00 | 4.36 | 3.47 | 96 | 1010.1 |
| 20260506082035 | 62 | 183 | 6.0 | 14.0 | 0.00 | 4.36 | 3.47 | 96 | 1010.2 |
| 20260506081547 | 62 | 139 | 8.0 | 17.0 | 0.00 | 4.36 | 3.47 | 96 | 1010.0 |
| 20260506081034 | 62 | 171 | 11.0 | 17.0 | 0.00 | 4.36 | 3.47 | 96 | 1009.9 |
| 20260506080533 | 61 | 212 | 8.0 | 15.0 | 0.00 | 4.36 | 3.47 | 96 | 1010.0 |
| 20260506073048 | 60 | 165 | 7.0 | 19.0 | 0.00 | 4.36 | 3.47 | 97 | 1010.0 |
| 20260506072536 | 60 | 211 | 8.0 | 19.0 | 0.00 | 4.36 | 3.47 | 97 | 1010.0 |
| 20260506072031 | 60 | 193 | 9.0 | 17.0 | 0.00 | 4.36 | 3.47 | 97 | 1010.0 |
| 20260506071550 | 60 | 205 | 9.0 | 15.0 | 0.00 | 4.36 | 3.47 | 97 | 1009.9 |
| 20260506071035 | 60 | 157 | 9.0 | 15.0 | 0.00 | 4.36 | 3.47 | 97 | 1009.8 |
| 20260506070532 | 60 | 189 | 8.0 | 15.0 | 0.00 | 4.36 | 3.47 | 97 | 1009.9 |
| 20260506062033 | 60 | 143 | 5.0 | 11.0 | 0.08 | 4.36 | 3.47 | 97 | 1009.7 |
| 20260506061551 | 60 | 148 | 6.0 | 11.0 | 0.08 | 4.36 | 3.47 | 97 | 1009.8 |
| 20260506061033 | 60 | 109 | 3.0 | 7.0 | 0.08 | 4.36 | 3.47 | 97 | 1009.8 |
| 20260506060534 | 60 | 188 | 2.0 | 7.0 | 0.08 | 4.36 | 3.47 | 97 | 1010.0 |